Location: Martin
(50.9667°N, 1.9000°W)
Time: 23:54:27
(UTC+00:00)

Daily predictions for brighter satellites

Satellite Brightness Start Highest point End
(mag) Time Altitude Azimuth Time Altitude Azimuth Time Altitude Azimuth
CZ-4C R/B 3.9 17:27:17 10° NW 17:34:13 54° SW 17:42:05 10° SSE
BREEZE-M DEB (TANK) 3.4 17:30:29 10° W 17:34:26 84° S 17:43:03 10° ESE
Cosmos 1821 Rocket 4.0 17:31:12 10° N 17:37:19 71° ENE 17:43:26 10° SSE
Cosmos 968 Rocket 3.8 17:32:41 10° NNW 17:37:58 75° WSW 17:43:12 10° SSE
Unknown 3.7 17:35:01 10° WSW 17:39:09 72° SSE 17:43:18 10° ENE
Unknown 3.7 17:38:11 10° WSW 17:42:19 73° SSE 17:46:28 10° ENE
Cosmos 1825 Rocket 3.6 17:39:36 10° N 17:44:00 89° W 17:48:24 10° S
Cosmos 1354 Rocket 4.3 17:38:51 10° NNW 17:44:06 75° WSW 17:49:19 10° SSE
Unknown 3.7 17:41:38 10° WSW 17:45:46 77° SSE 17:49:56 10° ENE
ATLAS 5 CENTAUR R/B 1.7 17:42:01 10° SW 17:46:21 89° NW 17:51:18 10° NE
Cosmos 2278 Rocket 3.4 17:42:23 10° SE 17:46:25 20° E 17:50:26 10° NE
Cosmos 724 4.5 17:40:20 10° SW 17:46:29 88° NW 17:52:32 10° NE
Cosmos 1934 Rocket 4.1 17:40:17 10° N 17:46:32 56° ENE 17:52:46 10° SSE
Unknown 3.4 17:43:34 10° WNW 17:47:03 62° N 17:50:33 10° E
Cosmos 1953 Rocket 3.5 17:42:50 10° N 17:47:14 70° ENE 17:51:34 10° SSE
Unknown 3.7 17:43:18 10° WSW 17:47:26 78° SSE 17:51:36 10° ENE
Unknown 3.6 17:44:56 10° WSW 17:49:05 79° SSE 17:53:14 10° ENE
Nadezhda 3 Rocket 4.0 17:44:25 10° S 17:50:41 74° E 17:57:03 10° NNE
Unknown 3.6 17:46:36 10° WSW 17:50:45 81° SSE 17:54:54 10° ENE
Lacrosse 5 rocket 3.2 17:47:55 10° WNW 17:51:10 28° SW 17:54:32 10° SSE
Cosmos 1844 3.8 17:45:40 10° SSW 17:51:17 60° ESE 17:56:59 10° NE
NOAA 12 4.2 17:46:48 10° SSE 17:52:05 90° E 17:57:27 10° NNW
Unknown 3.6 17:49:58 10° WSW 17:54:06 83° SSE 17:58:12 10° ENE
Cosmos 1470 3.4 17:50:46 10° SSW 17:54:43 61° WNW 17:58:41 10° N
Ariane Rocket 3.9 17:51:19 10° ESE 17:55:37 28° ENE 17:59:57 10° N
Unknown 3.6 17:51:40 10° WSW 17:55:49 84° SSE 17:59:51 11° ENE
Unknown 3.6 17:53:15 10° WSW 17:57:25 85° SSE 18:01:22 11° ENE
Unknown 3.6 17:54:54 10° WSW 17:59:03 85° SSE 18:02:57 12° ENE
Abrixas rocket 4.4 17:58:15 10° SSE 17:59:18 11° SE 18:00:22 10° SE
Unknown 3.6 17:55:19 10° WSW 17:59:29 87° SSE 18:03:22 12° ENE
Unknown 4.2 17:57:36 10° W 18:00:01 31° SSW 18:02:26 10° SSE
Cosmos 1939 Rocket 3.9 17:57:02 10° ESE 18:00:23 26° ENE 18:03:48 10° N
Cosmos 1461 3.4 17:56:35 10° NNW 18:00:27 41° NE 18:04:24 10° ESE
Cosmos 1992 Rocket 4.0 17:55:48 10° SSW 18:01:02 83° ESE 18:06:18 10° NNE
COBE Rocket 4.0 17:56:01 10° NNE 18:01:11 62° E 18:06:13 10° S
Cosmos 1328 3.9 17:57:38 10° N 18:01:35 55° ENE 18:05:28 10° SSE
Cosmos 1626 4.3 17:58:19 10° NNW 18:01:40 31° W 18:04:59 10° SSW
Cosmos 1606 Rocket 3.5 17:57:23 10° S 18:01:46 83° E 18:06:09 10° NNE
Unknown 3.6 17:58:02 10° WSW 18:02:11 86° SSE 18:05:58 12° ENE
Cosmos 1242 Rocket 2.5 17:58:42 10° N 18:02:24 68° ENE 18:06:04 10° SSE
Unknown 3.6 18:01:25 10° WSW 18:05:34 88° SSE 18:09:13 13° ENE
Unknown 3.6 18:03:03 10° WSW 18:07:12 89° S 18:10:46 14° ENE
CSL-04 Rocket 3.7 18:02:01 10° SSE 18:07:29 64° ENE 18:12:55 10° N
Cosmos 2084 Rocket 4.4 18:03:48 10° NW 18:07:51 33° NNE 18:11:04 14° E
Unknown 3.6 18:04:58 10° WSW 18:09:07 87° NNW 18:12:37 14° ENE
Cosmos 2263 Rocket 4.0 18:04:18 10° WSW 18:09:12 29° NW 18:14:05 10° NNE
Cosmos 1726 2.3 18:05:45 10° SSE 18:09:15 46° E 18:12:46 10° NNE
Unknown 3.2 18:06:21 10° WNW 18:09:27 61° SSW 18:12:18 12° SE
Unknown 3.6 18:06:20 10° WSW 18:10:30 89° N 18:13:56 15° ENE
Unknown 3.6 18:08:01 10° WSW 18:12:11 88° NNW 18:15:34 15° ENE
Cosmos 1777 Rocket 4.0 18:07:14 10° NNW 18:12:28 67° ENE 18:17:37 10° SE
Unknown 3.6 18:11:23 10° WSW 18:15:33 86° NNW 18:18:48 16° ENE
Unknown 3.6 18:13:03 10° WSW 18:17:13 85° NNW 18:20:24 17° ENE
NOAA 11 4.4 18:12:35 10° SE 18:17:47 48° ENE 18:22:59 10° N
ATLAS CENTAUR R/B 3.8 18:15:29 10° NW 18:18:14 15° N 18:20:55 10° NE
Unknown 3.6 18:14:43 10° WSW 18:18:53 84° NNW 18:22:00 17° ENE
Unknown 3.6 18:16:23 10° WSW 18:20:33 83° NNW 18:23:35 18° ENE
Cosmos 1271 Rocket 4.2 18:16:48 10° NNW 18:20:34 42° W 18:24:21 10° SSW
Cosmos 839 Rocket 4.3 18:15:37 10° NW 18:21:46 73° SW 18:28:38 10° SSE
Cosmos 1833 Rocket 2.7 18:16:47 10° NNW 18:22:22 61° NE 18:27:56 10° SE
Unknown 3.6 18:19:38 10° W 18:23:21 62° N 18:25:43 21° ENE
Unknown 3.6 18:19:42 10° WSW 18:23:51 81° NNW 18:26:46 19° ENE
Cosmos 1076 Rocket 4.4 18:20:02 10° N 18:23:54 30° ENE 18:27:01 14° SE
CZ-4 R/B 1.6 18:21:01 10° S 18:25:12 79° WSW 18:29:28 10° NNW
Unknown 3.6 18:21:06 10° WSW 18:25:15 80° NNW 18:28:06 20° ENE
BREEZE-M DEB (TANK) 4.2 18:16:01 10° SW 18:25:26 29° SSE 18:27:59 18° ESE
SKYMED 2 3.5 18:21:18 10° NNE 18:25:41 78° ESE 18:30:01 10° S
Unknown 3.7 18:21:38 10° W 18:25:48 77° NNW 18:28:37 20° ENE
Unknown 3.7 18:23:17 10° W 18:27:26 77° NNW 18:30:12 20° ENE
CZ-2D R/B 3.4 18:25:48 10° SSE 18:29:33 53° ENE 18:33:20 10° N
Unknown 3.7 18:26:23 10° W 18:30:32 78° NNW 18:33:10 22° ENE
YAOGAN 1 2.6 18:26:54 10° SSE 18:31:14 87° WSW 18:35:36 10° NNW
Cosmos 489 Rocket 4.4 18:26:58 10° S 18:33:06 67° ESE 18:39:16 10° NNE
Unknown 3.7 18:29:42 10° W 18:33:52 77° NNW 18:36:21 23° ENE
Unknown 3.7 18:30:43 10° W 18:34:48 73° NNW 18:37:13 24° ENE
Unknown 3.7 18:31:24 10° W 18:35:33 76° NNW 18:37:59 24° ENE
Unknown 3.7 18:33:02 10° W 18:37:11 75° NNW 18:39:33 25° ENE
Unknown 3.7 18:33:12 10° W 18:37:15 68° N 18:39:29 25° ENE
H-2A R/B 3.2 18:35:44 21° E 18:37:30 25° ENE 18:41:50 10° N
Unknown 3.7 18:34:43 10° W 18:38:52 74° N 18:41:10 25° ENE
Meteor 2-10 3.9 18:34:28 10° S 18:39:32 86° ESE 18:44:37 10° NNE
Unknown 3.6 18:37:41 10° W 18:41:30 62° N 18:43:14 29° ENE
BREEZE-M DEB (TANK) 3.8 18:39:11 10° SSW 18:42:19 21° SSE 18:42:39 21° SSE
Shenzhou-11 Module 4.1 18:41:45 10° SW 18:43:27 15° S 18:44:07 14° S
Cosmos 2228 4.2 18:40:19 10° SSW 18:44:31 45° WNW 18:48:43 10° N
YAOGAN 6 3.7 18:40:58 10° S 18:44:31 47° W 18:48:03 10° NNW
ADEOS Rocket 4.3 18:39:07 10° NNE 18:45:26 27° E 18:51:24 10° SE
Unknown 3.7 18:41:19 10° W 18:45:28 72° N 18:47:29 29° ENE
Cosmos 1703 4.0 18:42:08 10° NNW 18:46:01 56° W 18:49:50 10° S
Cosmos 2082 Rocket 2.2 18:40:59 10° NNW 18:46:42 65° ENE 18:51:05 17° SE
Unknown 3.7 18:43:03 10° W 18:47:12 72° N 18:49:09 30° ENE
Unknown 3.7 18:44:41 10° W 18:48:50 71° N 18:50:43 31° ENE
ASTEX 1 4.0 18:45:08 10° N 18:50:00 60° W 18:54:53 10° SSW
Unknown 3.7 18:46:20 10° W 18:50:30 70° N 18:52:18 32° ENE
Unknown 3.6 18:47:59 10° W 18:51:52 63° N 18:53:16 36° ENE
Unknown 3.7 18:48:01 10° W 18:52:10 70° N 18:53:54 33° ENE
FALCON 9 DEB 3.1 18:49:13 10° WNW 18:52:43 84° SSW 18:53:41 45° ESE
Cosmos 921 Rocket 4.0 18:49:44 10° SW 18:54:07 51° WNW 18:58:29 10° NNE
Cosmos 2084 4.4 18:49:46 10° WSW 18:54:08 48° NW 18:57:42 15° NE
Unknown 3.1 18:50:47 10° WNW 18:54:12 76° SSW 18:55:05 46° SE
COSMOS 2406 4.3 18:48:44 10° NW 18:54:13 46° WSW 18:59:39 10° S
Cosmos 2151 4.4 18:51:11 10° NNE 18:53:49 22° NE 18:53:49 22° NE
Gbstr 26 Del rocket 4.2 18:49:00 10° WNW 18:55:00 69° SSW 18:59:47 22° SE
Cosmos 1898 Rocket 4.1 18:50:14 10° NNW 18:55:09 38° NE 18:56:42 31° E
Unknown 3.7 18:51:22 10° W 18:55:31 69° N 18:57:08 35° ENE
Starlink (trailer) 3.7 18:53:01 10° W 18:57:10 69° N 18:58:42 36° ENE
Cosmos 1356 4.4 18:55:07 10° SSW 18:58:28 47° WNW 19:01:49 10° N
Cosmos 292 Rocket 3.9 18:53:45 10° SSW 18:58:30 75° WNW 19:03:17 10° NNE
Unknown 3.7 18:54:41 10° W 18:58:49 68° N 19:00:18 38° ENE
Unknown 3.7 18:56:20 10° W 19:00:29 68° N 19:01:53 39° ENE
Cosmos 2058 3.1 18:56:45 10° N 19:00:52 47° ENE 19:01:38 41° ESE
Cosmos 2058 Rocket 4.0 18:56:44 10° SSW 19:00:57 48° WNW 19:05:12 10° N
Cosmos 2061 Rocket 4.4 18:55:46 10° N 19:01:41 41° ENE 19:04:09 29° ESE
Unknown 3.1 18:58:13 10° WNW 19:01:45 84° SSW 19:02:22 58° ESE
SJ-6B 3.8 19:03:36 29° NE 19:03:36 29° NE 19:06:07 10° N
ATLAS 3B R/B 4.4 19:00:20 10° SSE 19:01:17 13° SE 19:01:17 13° SE
Cosmos 1844 Rocket 4.0 19:00:46 10° WSW 19:06:03 39° NW 19:11:20 10° NNE
Unknown 3.8 19:02:41 10° W 19:06:50 67° N 19:07:57 44° ENE
Unknown 3.8 19:03:01 10° W 19:07:09 67° N 19:08:16 45° ENE
Unknown 3.8 19:03:39 10° W 19:07:47 66° N 19:08:52 45° ENE
USA 116 4.0 19:04:52 10° N 19:07:56 52° WNW 19:11:09 10° SSW
DMSP B5D1-3 4.4 19:02:52 10° NNE 19:08:02 83° ESE 19:13:12 10° SSW
Falcon 9 debris 3.2 19:07:37 10° WNW 19:11:02 64° SSW 19:11:19 61° S
Unknown 3.8 19:07:14 10° W 19:11:22 66° N 19:12:18 48° NE
Unknown 3.8 19:08:03 10° W 19:12:12 66° N 19:13:06 49° NE
CZ-2C R/B 4.0 19:12:02 32° ENE 19:12:30 32° ENE 19:17:34 10° N
In-Cosmos 22 Rocket 4.1 19:08:17 10° N 19:13:36 57° ENE 19:15:44 35° SE
COSMO-SKYMED 1 4.1 19:09:38 10° N 19:13:41 38° WNW 19:17:42 10° SW
Unknown 3.8 19:09:50 10° W 19:13:58 65° N 19:14:48 51° NE
Unknown 3.8 19:13:09 10° W 19:17:17 65° N 19:17:58 54° NE
Cosmos 1908 4.3 19:13:48 10° SSW 19:17:34 45° WNW 19:21:20 10° N
Unknown 3.8 19:13:27 10° W 19:17:35 65° N 19:18:16 54° NE
SJ 16-02 2.3 19:14:05 10° N 19:17:24 32° NE 19:17:24 32° NE
Cosmos 1459 Rocket 3.9 19:12:13 10° N 19:18:25 68° ENE 19:23:02 19° SSE
Unknown 3.7 19:14:43 10° W 19:18:51 65° N 19:19:29 55° NE
Lacrosse 5 2.0 19:14:08 10° WNW 19:19:11 69° SW 19:20:55 40° SSE
Unknown 3.7 19:17:53 10° W 19:22:01 65° N 19:22:31 58° NE
Unknown 3.5 19:20:51 10° WNW 19:24:07 59° SW 19:24:07 59° SW
Unknown 3.7 19:21:22 10° W 19:25:30 65° N 19:25:50 61° NNE
Unknown 3.7 19:23:02 10° W 19:27:10 65° N 19:27:27 62° NNE
Unknown 3.7 19:24:41 10° W 19:28:49 64° N 19:29:01 63° NNE
Cosmos 2278 Rocket 2.2 19:24:09 10° SSW 19:29:50 80° WNW 19:35:34 10° NNE
MOS 1 4.3 19:25:42 16° SSE 19:30:22 83° WSW 19:36:04 10° NNW
Unknown 3.7 19:26:21 10° W 19:30:29 64° N 19:30:37 64° NNE
USA 238 DEB 3.6 19:24:03 10° SSW 19:30:39 62° SE 19:33:52 32° ENE
USA 238 3.6 19:24:11 10° SSW 19:30:46 62° SE 19:33:55 33° ENE
Resurs 01 Rocket 3.3 19:32:44 22° NNE 19:32:44 22° NNE 19:34:44 10° N
ATLAS 5 CENTAUR R/B 3.5 19:27:41 10° W 19:31:41 28° NNW 19:34:48 16° NNE
Unknown 3.8 19:29:44 10° W 19:33:51 64° N 19:33:51 64° N
Ariane Rocket 3.8 19:29:22 10° S 19:34:20 52° W 19:39:21 10° NNW
Cosmos 1766 Rocket 4.5 19:30:10 10° N 19:32:57 35° NNE 19:32:57 35° NNE
Okean 3 Rocket 3.7 19:30:04 10° N 19:34:09 62° NE 19:34:09 62° NE
Cosmos 1939 Rocket 4.4 19:31:31 10° SSW 19:35:12 36° W 19:38:58 10° NNW
Cosmos 1727 Rocket 4.1 19:29:20 10° SSW 19:35:30 74° WNW 19:41:43 10° N
Unknown 3.8 19:31:26 10° W 19:35:30 64° N 19:35:30 64° N
Unknown 3.8 19:33:02 10° W 19:37:01 64° NNW 19:37:01 64° NNW
Unknown 3.9 19:34:40 10° W 19:38:36 63° NNW 19:38:36 63° NNW
Unknown 3.9 19:35:07 10° W 19:39:01 63° NNW 19:39:01 63° NNW
Cosmos 1461 4.4 19:35:48 10° WNW 19:39:29 33° WSW 19:40:53 26° SSW
Unknown 3.9 19:37:50 10° W 19:41:37 61° NNW 19:41:37 61° NNW
Cosmos 1802 Rocket 3.9 19:36:17 10° N 19:42:46 83° E 19:45:54 33° SSE
Cosmos 2173 Rocket 4.0 19:36:42 10° N 19:43:01 84° W 19:47:19 21° S
Unknown 4.1 19:41:13 10° W 19:44:52 58° NW 19:44:52 58° NW
Unknown 4.1 19:42:51 10° W 19:46:25 57° NW 19:46:25 57° NW
Cosmos 1864 Rocket 4.4 19:40:58 10° N 19:47:05 63° ENE 19:47:34 61° ESE
Cosmos 2084 Rocket 3.8 19:43:16 10° NW 19:47:36 61° SW 19:47:36 61° SW
Unknown 4.2 19:44:46 10° W 19:48:16 55° NW 19:48:16 55° NW
Unknown 4.2 19:46:08 10° W 19:49:35 54° NW 19:49:35 54° NW
Cosmos 858 Rocket 4.4 19:46:03 10° NNW 19:50:57 70° NNE 19:50:57 70° NNE
Cosmos 1937 Rocket 3.5 19:46:37 10° NNW 19:51:20 66° NNE 19:51:20 66° NNE
Unknown 4.3 19:47:50 10° W 19:51:12 52° NW 19:51:12 52° NW
Cosmos 2123 Rocket 4.4 19:56:11 45° NE 19:56:11 45° NE 20:00:45 10° NNE
Unknown 4.4 19:51:12 10° W 19:54:27 49° NW 19:54:27 49° NW
NOSS 3-2 (A) 3.3 19:49:49 10° SSW 19:55:39 72° SE 19:56:02 69° E
Cosmos 990 Rocket 3.9 19:52:01 10° NNW 19:57:15 86° WSW 19:57:16 86° WSW
ATLAS CENTAUR R/B 3.4 19:55:03 10° NNW 19:57:49 22° N 19:57:49 22° N
SPOT 3 Rocket 3.6 19:58:35 66° SSW 19:59:13 76° WSW 20:04:28 10° NNW
ARGOS 3.0 20:01:16 86° S 20:01:23 89° SW 20:06:52 10° NNW
Cosmos 1725 Rocket 3.8 19:56:15 10° N 20:02:34 79° E 20:03:03 74° SE
Cosmos 2233 Rocket 4.3 19:59:06 10° N 20:04:19 52° NE 20:04:19 52° NE
Cosmos 1000 Rocket 4.5 19:59:40 10° SSW 20:05:51 80° W 20:12:10 10° N
H-2A R/B 2.4 20:16:22 65° WSW 20:16:29 65° WSW 20:21:55 10° NNW
Cosmos 2016 Rocket 4.4 20:20:48 10° NNW 20:26:57 60° W 20:28:29 47° SW
Cosmos 2227 Rocket 4.5 20:25:21 10° N 20:27:45 13° NNE 20:27:45 13° NNE
Cosmos 2082 Rocket 4.1 20:25:45 10° NW 20:30:20 26° WSW 20:32:59 18° SW
ADEOS Rocket 3.5 20:23:56 10° NNE 20:31:44 81° WNW 20:39:02 10° SSW
Cosmos 2297 Rocket 4.4 20:30:37 10° N 20:32:56 14° NNE 20:32:56 14° NNE
CZ-2C R/B 4.1 20:53:07 48° WNW 20:53:07 48° WNW 20:57:48 10° NNW
SJ 16-02 3.8 20:52:46 10° NW 20:54:25 20° NW 20:54:25 20° NW
Lacrosse 5 4.3 20:58:10 10° W 21:00:08 16° WSW 21:00:08 16° WSW
Resurs 01 Rocket 4.3 21:10:18 17° NW 21:10:18 17° NW 21:11:25 10° NNW
Cosmos 2278 Rocket 4.4 21:10:29 10° W 21:14:51 22° NW 21:19:02 11° NNE
ATLAS 5 CENTAUR R/B 4.3 21:14:05 10° NW 21:16:20 19° NNW 21:16:20 19° NNW
